Lid_Strength_Index
4 4 4 4 4 4 4 4 4 4 4 4 5 4 4 4 4 8 11 8 6 3 2 8 7 8 10 11 11 12 16 19 17 14 13 10 10 9 8 10 8 5 5 4 3
4 4 4 4 4 4 4 4 4 4 4 4 4 5 5 5 8 9 6 4 3 2 7 11 11 10 13 12 13 14 18 16 14 12 13 10 10 9 10 11 11 6 4 3 3
4 4 4 4 4 4 4 4 4 4 4 4 4 5 5 6 12 13 4 3 2 2 8 10 10 11 14 14 13 15 17 14 13 12 11 11 10 8 10 12 10 9 6 4 4
4 4 4 4 4 3 4 4 4 4 4 5 5 5 5 8 16 6 1 2 2 4 8 10 11 14 15 15 14 17 14 13 13 12 12 12 9 9 9 10 9 9 6 4 5
3 3 3 3 3 3 3 4 4 4 4 5 5 5 8 12 12 8 3 0 3 4 8 11 13 15 15 14 14 16 14 14 13 12 12 11 11 10 9 8 8 9 5 5 5
3 3 3 3 3 3 3 3 4 4 5 5 4 5 9 14 9 7 2 3 4 6 8 11 12 12 14 13 14 13 13 13 13 13 13 13 11 9 9 8 9 9 5 5 5
3 3 3 3 3 3 3 3 4 4 4 4 4 6 9 11 7 6 5 5 4 6 9 10 10 11 12 13 11 12 14 13 12 12 13 11 12 12 8 8 10 10 6 6 6
3 3 3 3 3 3 2 3 3 3 3 4 3 6 12 7 6 7 7 7 4 6 8 7 9 11 13 11 11 13 14 16 11 10 9 10 14 11 9 9 11 10 9 6 6
3 3 3 3 3 3 2 3 3 3 3 3 5 8 12 5 7 6 7 8 6 5 6 5 9 12 11 13 14 14 16 14 12 10 10 10 12 9 8 9 10 10 9 9 8
3 3 3 3 3 3 3 3 3 3 2 3 4 9 9 9 6 5 7 7 8 8 9 9 12 13 14 15 17 15 15 14 13 11 11 12 12 10 9 8 10 11 10 10 9
3 3 3 3 3 3 3 6 6 7 6 9 8 8 7 5 4 7 7 8 8 10 12 11 14 15 13 12 12 12 13 13 11 10 11 12 12 11 9 10 11 7 11 10 10
3 3 3 3 2 2 3 8 8 7 9 6 6 7 6 6 8 7 7 9 10 11 11 12 14 11 10 10 11 12 13 13 11 10 11 12 12 11 11 10 10 10 8 10 10
3 3 2 2 2 4 5 7 6 7 11 9 7 7 7 5 7 7 7 8 9 11 11 13 11 8 10 11 11 12 13 13 12 11 11 13 13 12 11 10 9 10 10 9 9
3 2 2 2 5 6 7 5 5 7 14 10 8 7 6 6 8 5 6 8 9 10 10 11 9 9 10 11 11 14 10 10 11 13 16 13 17 14 13 11 10 10 10 9 9
3 2 1 1 4 7 5 6 6 8 20 9 8 5 6 8 8 7 5 7 9 10 10 11 10 11 11 11 10 11 10 11 11 14 16 15 17 15 13 12 11 10 9 9 9
2 2 2 3 4 5 5 5 7 13 19 11 7 8 9 8 8 8 8 6 7 9 9 9 8 9 10 9 10 9 12 13 15 16 18 16 16 16 14 13 11 10 8 7 8
2 2 3 2 7 5 6 7 13 18 9 12 10 9 9 9 9 9 10 11 12 14 13 11 11 9 8 11 11 12 15 18 19 19 19 15 16 15 12 9 9 9 9 9 9
2 3 3 3 3 4 6 10 18 13 11 9 9 9 11 9 9 9 10 12 10 11 13 14 14 10 8 10 11 12 15 18 20 20 18 14 17 14 9 8 8 8 9 9 9
3 6 7 6 5 5 7 15 15 12 9 10 9 11 12 10 10 11 12 12 10 10 13 13 13 9 8 8 9 13 14 13 17 17 18 16 14 11 9 9 8 9 9 9 9
5 8 8 5 4 6 10 13 12 8 8 9 12 11 13 12 13 12 12 10 11 8 9 11 14 10 9 8 8 10 10 15 15 20 21 17 16 15 13 11 9 10 10 10 10
9 9 5 5 5 7 13 12 10 7 7 9 12 11 11 12 12 13 13 10 9 9 8 10 13 12 10 12 13 12 14 13 14 16 20 21 17 12 11 10 10 9 9 9 10
8 10 6 4 9 9 12 10 8 8 6 8 9 9 11 11 12 13 13 11 8 8 12 10 12 16 13 9 9 11 13 13 17 19 17 17 16 9 9 9 8 9 7 7 8
8 10 7 5 12 12 10 9 8 9 8 8 9 9 8 12 14 11 11 9 9 9 11 11 13 17 16 14 12 13 12 13 13 15 17 19 17 9 8 9 8 8 7 7 6
8 12 8 8 9 10 10 10 9 7 8 8 9 8 10 12 13 13 11 9 8 8 7 9 13 15 18 16 13 15 13 12 14 17 17 17 15 11 10 10 8 8 7 7 6
10 10 10 11 9 10 11 9 10 10 9 8 10 9 11 15 14 13 11 10 8 8 9 11 15 15 14 12 12 13 13 12 14 14 16 14 14 11 9 9 9 8 7 7 7
9 10 8 10 9 9 10 10 10 10 10 10 10 10 10 13 13 14 12 12 12 9 11 11 15 15 15 12 12 14 12 12 12 12 13 12 13 8 7 7 8 7 7 8 9
6 5 7 9 9 10 10 10 9 9 9 9 9 10 12 11 10 10 10 10 11 11 12 13 14 15 16 13 13 16 14 13 12 11 12 14 11 9 9 9 9 10 9 9 9